Beaufort MCAS, SC

4:59 AM EDT on September 20, 2017 (GMT -0400)
Beaufort Marine Corps Air Station

Weather History for KNBC - June, 2013

Change the Weather History Date:

Wednesday, June 5, 2013

  Actual Average Record
Temperature  
Mean Temperature 78 °F -  
Max Temperature 82 °F 86 °F 102 °F (1943)
Min Temperature 75 °F 68 °F 56 °F (1954)
Cooling Degree Days 14    
Growing Degree Days 28 (Base 50)    
Moisture  
Dew Point 73 °F    
Average Humidity 88    
Maximum Humidity 94    
Minimum Humidity 71    
Precipitation  
Precipitation 0.40 in - - ()
Sea Level Pressure  
Sea Level Pressure 29.99 in    
Wind  
Wind Speed 5 mph (ESE)    
Max Wind Speed 12 mph    
Max Gust Speed 18 mph    
Visibility 7 miles    
Events Fog , Rain , Thunderstorm    
Averages and records for this station are not official NWS values.
T = Trace of Precipitation, MM = Missing Value Source: NWS Daily Summary

Daily Weather History Graph

Daily Weather History Graph

Search for Another Location

Airport or City:

Trip Planner

Search our weather history database for the weather conditions in past years. The results will help you decide how hot, cold, wet, or windy it might be!

Date:

Astronomy

Jun. 05, 2013 Rise Set
Actual Time 6:15 AM EDT 8:27 PM EDT
Civil Twilight 5:47 AM EDT 8:55 PM EDT
Nautical Twilight 5:12 AM EDT 9:30 PM EDT
Astronomical Twilight 4:35 AM EDT 10:07 PM EDT
Moon 4:10 AM EDT (6/5) 5:59 PM EDT (6/5)
Length of Visible Light 15h 08m
Length of Day
14h 12m
Waning Crescent, 8% of the Moon is Illuminated
Jun 5
Waning Crescent
Jun 8
New
Jun 16
First Quarter
Jun 23
Full
Jun 30
Last Quarter

Hourly Weather History & Observations

Time (EDT) Temp. Heat Index Dew Point Humidity Pressure Visibility Wind Dir Wind Speed Gust Speed Precip Events Conditions
12:56 AM 77.0 °F - 73.0 °F 88% 30.01 in 10.0 mi East 5.8 mph - N/A   Clear
1:26 AM 77.0 °F - 73.0 °F 88% 30.01 in 10.0 mi ESE 4.6 mph - N/A   Mostly Cloudy
1:33 AM 77.0 °F - 73.9 °F 90% 30.01 in 10.0 mi SE 4.6 mph - N/A   Mostly Cloudy
1:56 AM 77.0 °F - 73.0 °F 88% 30.00 in 10.0 mi Calm Calm - N/A   Partly Cloudy
2:56 AM 75.9 °F - 73.9 °F 94% 29.99 in 10.0 mi East 3.5 mph - N/A   Partly Cloudy
3:56 AM 77.0 °F - 73.9 °F 90% 29.99 in 10.0 mi East 5.8 mph - N/A   Mostly Cloudy
4:23 AM 77.0 °F - 73.9 °F 90% 29.99 in 10.0 mi SE 3.5 mph - N/A   Overcast
4:56 AM 77.0 °F - 73.9 °F 90% 30.00 in 10.0 mi Calm Calm - N/A   Overcast
5:56 AM 75.9 °F - 73.0 °F 91% 30.01 in 10.0 mi ENE 4.6 mph - N/A   Partly Cloudy
6:08 AM 75.0 °F - 72.0 °F 90% 30.01 in 9.0 mi NE 4.6 mph - N/A   Scattered Clouds
6:36 AM 75.9 °F - 73.0 °F 91% 30.01 in 7.0 mi ENE 5.8 mph - N/A   Mostly Cloudy
6:56 AM 77.0 °F - 73.9 °F 90% 30.01 in 7.0 mi NNE 3.5 mph - N/A Fog Shallow Fog
7:56 AM 78.1 °F - 73.9 °F 87% 30.01 in 10.0 mi ENE 4.6 mph - N/A   Mostly Cloudy
8:56 AM 78.1 °F - 73.0 °F 84% 30.03 in 10.0 mi East 6.9 mph - N/A   Mostly Cloudy
9:08 AM 78.1 °F - 73.9 °F 87% 30.02 in 2.0 mi ESE 5.8 mph - 0.04 in Rain Heavy Rain
9:17 AM 77.0 °F - 75.0 °F 94% 30.03 in 2.0 mi SSE 3.5 mph - 0.10 in Rain Heavy Rain
9:25 AM 77.0 °F - 73.9 °F 90% 30.03 in 2.0 mi SE 6.9 mph - 0.10 in Rain , Thunderstorm Heavy Thunderstorms and Rain
9:56 AM 75.0 °F - 71.1 °F 87% 30.03 in 2.0 mi North 3.5 mph - 0.24 in Rain , Thunderstorm Heavy Thunderstorms and Rain
10:26 AM 75.0 °F - 72.0 °F 90% 30.03 in 2.0 mi West 4.6 mph - N/A Rain , Thunderstorm Thunderstorms and Rain
10:56 AM 75.0 °F - 73.0 °F 94% 30.03 in 2.0 mi Calm Calm - N/A Rain , Thunderstorm Light Thunderstorms and Rain
11:03 AM 75.0 °F - 73.0 °F 94% 30.02 in 2.0 mi Calm Calm - 0.00 in Rain , Thunderstorm Light Thunderstorms and Rain
11:10 AM 75.9 °F - 73.0 °F 91% 30.03 in 6.0 mi Calm Calm - 0.01 in Rain , Thunderstorm Light Thunderstorms and Rain
11:44 AM 77.0 °F - 73.9 °F 90% 30.03 in 4.0 mi ESE 6.9 mph - 0.01 in Thunderstorm Thunderstorm
11:56 AM 77.0 °F - 73.9 °F 90% 30.03 in 4.0 mi ESE 6.9 mph - 0.01 in Thunderstorm Overcast
12:54 PM 78.8 °F - 73.4 °F 83% 30.03 in 10.0 mi East 6.9 mph - 0.01 in Rain Light Rain
12:56 PM 78.1 °F - 73.9 °F 87% 30.03 in 10.0 mi East 5.8 mph - 0.01 in Rain Light Rain
1:18 PM 79.0 °F - 73.9 °F 84% 30.02 in 10.0 mi ESE 8.1 mph - 0.00 in Rain , Thunderstorm Light Thunderstorms and Rain
1:56 PM 77.0 °F - 73.9 °F 90% 29.99 in 4.0 mi SSE 6.9 mph - 0.02 in Rain , Thunderstorm Heavy Thunderstorms and Rain
2:03 PM 77.0 °F - 73.9 °F 90% 29.98 in 5.0 mi SE 10.4 mph - 0.01 in Rain Heavy Rain
2:56 PM 81.0 °F 86.2 °F 73.9 °F 79% 29.98 in 10.0 mi SE 11.5 mph - 0.01 in   Mostly Cloudy
3:56 PM 81.0 °F 85.2 °F 72.0 °F 74% 29.97 in 10.0 mi SE 11.5 mph 18.4 mph N/A   Mostly Cloudy
4:56 PM 80.1 °F 84.2 °F 73.0 °F 79% 29.96 in 10.0 mi ESE 10.4 mph - N/A   Mostly Cloudy
5:17 PM 82.0 °F 86.7 °F 72.0 °F 71% 29.96 in 10.0 mi SSE 5.8 mph - N/A   Mostly Cloudy
5:56 PM 82.0 °F 86.7 °F 72.0 °F 71% 29.95 in 10.0 mi SSE 5.8 mph - N/A   Mostly Cloudy
6:56 PM 79.0 °F - 73.0 °F 82% 29.94 in 6.0 mi SSE 8.1 mph - 0.01 in Rain Light Rain
7:46 PM 78.1 °F - 73.9 °F 87% 29.95 in 3.0 mi ESE 6.9 mph - 0.02 in Rain Rain
7:56 PM 78.1 °F - 73.9 °F 87% 29.95 in 10.0 mi ESE 6.9 mph - 0.02 in   Overcast
8:56 PM 77.0 °F - 72.0 °F 84% 29.94 in 6.0 mi SE 6.9 mph - 0.00 in Rain Light Rain
9:56 PM 75.9 °F - 73.0 °F 91% 29.96 in 10.0 mi Calm Calm - 0.04 in Thunderstorm Thunderstorm
10:31 PM 75.0 °F - 72.0 °F 90% 29.97 in 10.0 mi NE 4.6 mph - N/A Thunderstorm Overcast
10:38 PM 75.0 °F - 72.0 °F 90% 29.97 in 10.0 mi NNE 3.5 mph - N/A   Overcast
10:56 PM 75.0 °F - 72.0 °F 90% 29.97 in 10.0 mi NE 3.5 mph - N/A   Overcast
11:15 PM 75.0 °F - 73.0 °F 94% 29.97 in 9.0 mi Calm Calm - N/A   Overcast
11:24 PM 75.9 °F - 73.0 °F 91% 29.97 in 2.5 mi Calm Calm - 0.04 in Rain Light Rain
11:32 PM 75.9 °F - 73.0 °F 91% 29.97 in 6.0 mi Calm Calm - 0.04 in Rain Light Rain
11:56 PM 75.0 °F - 73.0 °F 94% 29.97 in 9.0 mi Calm Calm - 0.04 in   Mostly Cloudy